Weather History for KASJ - April, 2014

Change the Weather History Date:

Tuesday, April 1, 2014

  Actual Average (KEMV) Record (KEMV)
Temperature  
Mean Temperature 55 °F -  
Max Temperature 75 °F 66 °F 87 °F (1986)
Min Temperature 35 °F 40 °F 26 °F (1987)
Degree Days  
Heating Degree Days 10    
Growing Degree Days 5 (Base 50)    
Moisture  
Dew Point 37 °F    
Average Humidity 59    
Maximum Humidity 96    
Minimum Humidity 21    
Precipitation  
Precipitation 0.00 in - - ()
Sea Level Pressure  
Sea Level Pressure 30.09 in    
Wind  
Wind Speed 1 mph (South)    
Max Wind Speed 7 mph    
Max Gust Speed -    
Visibility 10 miles    
Events      
Averages and records for this station are not official NWS values.
T = Trace of Precipitation, MM = Missing Value Source: NWS Daily Summary

Daily Weather History Graph

Daily Weather History Graph

Search for Another Location

Airport or City:

Trip Planner

Search our weather history database for the weather conditions in past years. The results will help you decide how hot, cold, wet, or windy it might be!

Date:

Astronomy

Apr. 01, 2014 Rise Set
Actual Time 6:54 AM EDT 7:30 PM EDT
Civil Twilight 6:28 AM EDT 7:56 PM EDT
Nautical Twilight 5:58 AM EDT 8:27 PM EDT
Astronomical Twilight 5:27 AM EDT 8:58 PM EDT
Moon 7:59 AM EDT (4/1) 9:46 PM EDT (4/1)
Length of Visible Light 13h 27m
Length of Day
12h 35m
Waxing Crescent, 4% of the Moon is Illuminated
Apr 1
Waxing Crescent
Apr 7
First Quarter
Apr 15
Full
Apr 22
Last Quarter
Apr 29
New

Hourly Weather History & Observations

Time (EDT) Temp. Dew Point Humidity Pressure Visibility Wind Dir Wind Speed Gust Speed Precip Events Conditions
12:15 AM 43.0 °F 38.1 °F 83% 30.10 in 10.0 mi Calm Calm - N/A   Clear
12:35 AM 41.9 °F 37.8 °F 85% 30.11 in 10.0 mi Calm Calm - N/A   Clear
12:55 AM 41.2 °F 37.4 °F 86% 30.11 in 10.0 mi Calm Calm - N/A   Clear
1:15 AM 40.3 °F 37.2 °F 89% 30.11 in 10.0 mi Calm Calm - N/A   Clear
1:35 AM 40.1 °F 37.2 °F 89% 30.11 in 10.0 mi Calm Calm - N/A   Clear
1:55 AM 39.6 °F 36.9 °F 90% 30.11 in 10.0 mi Calm Calm - N/A   Clear
2:15 AM 38.7 °F 36.5 °F 92% 30.11 in 10.0 mi Calm Calm - N/A   Clear
2:35 AM 38.3 °F 36.1 °F 92% 30.11 in 10.0 mi Calm Calm - N/A   Clear
2:55 AM 38.1 °F 36.1 °F 93% 30.11 in 10.0 mi Calm Calm - N/A   Clear
3:15 AM 37.6 °F 35.8 °F 93% 30.11 in 10.0 mi Calm Calm - N/A   Clear
3:35 AM 37.6 °F 36.1 °F 95% 30.11 in 10.0 mi Calm Calm - N/A   Clear
3:55 AM 37.6 °F 36.1 °F 95% 30.11 in 10.0 mi Calm Calm - N/A   Clear
4:15 AM 37.2 °F 35.6 °F 94% 30.11 in 10.0 mi Calm Calm - N/A   Clear
4:35 AM 36.7 °F 35.4 °F 95% 30.11 in 10.0 mi Calm Calm - N/A   Clear
4:55 AM 36.3 °F 34.9 °F 95% 30.11 in 10.0 mi Calm Calm - N/A   Clear
5:15 AM 36.9 °F 35.8 °F 96% 30.11 in 10.0 mi Calm Calm - N/A   Clear
5:35 AM 36.5 °F 35.2 °F 95% 30.12 in 10.0 mi Calm Calm - N/A   Clear
5:55 AM 36.5 °F 34.9 °F 94% 30.13 in 10.0 mi Calm Calm - N/A   Clear
6:15 AM 36.1 °F 34.7 °F 94% 30.13 in 10.0 mi Calm Calm - N/A   Clear
6:35 AM 36.0 °F 34.3 °F 94% 30.14 in 10.0 mi Calm Calm - N/A   Clear
6:55 AM 35.8 °F 34.3 °F 94% 30.14 in 10.0 mi Calm Calm - N/A   Clear
7:15 AM 35.8 °F 34.2 °F 94% 30.15 in 10.0 mi Calm Calm - N/A   Clear
7:35 AM 35.6 °F 34.5 °F 96% 30.15 in 10.0 mi Calm Calm - N/A   Clear
7:55 AM 37.6 °F 36.3 °F 95% 30.16 in 10.0 mi Calm Calm - N/A   Clear
8:15 AM 40.5 °F 38.7 °F 93% 30.16 in 10.0 mi Calm Calm - N/A   Clear
8:35 AM 46.4 °F 39.6 °F 77% 30.16 in 10.0 mi Calm Calm - N/A   Clear
8:55 AM 50.5 °F 38.5 °F 63% 30.17 in 10.0 mi Calm Calm - N/A   Clear
9:15 AM 53.1 °F 37.4 °F 55% 30.16 in 10.0 mi ENE 3.5 mph - N/A   Clear
9:35 AM 54.5 °F 36.9 °F 51% 30.17 in 10.0 mi NE 4.6 mph - N/A   Clear
9:55 AM 55.8 °F 37.0 °F 49% 30.17 in 10.0 mi Calm Calm - N/A   Clear
10:15 AM 57.0 °F 36.5 °F 46% 30.17 in 10.0 mi Calm Calm - N/A   Clear
10:35 AM 58.6 °F 36.5 °F 44% 30.17 in 10.0 mi South 3.5 mph - N/A   Clear
10:55 AM 60.4 °F 34.9 °F 38% 30.17 in 10.0 mi SE 3.5 mph - N/A   Clear
11:15 AM 61.2 °F 36.3 °F 40% 30.16 in 10.0 mi South 3.5 mph - N/A   Clear
11:35 AM 62.4 °F 36.5 °F 38% 30.16 in 10.0 mi Calm Calm - N/A   Clear
11:55 AM 64.0 °F 36.1 °F 36% 30.15 in 10.0 mi SSE 5.8 mph - N/A   Clear
12:15 PM 65.3 °F 34.9 °F 32% 30.14 in 10.0 mi South 5.8 mph - N/A   Clear
12:35 PM 66.2 °F 33.8 °F 30% 30.14 in 10.0 mi South 6.9 mph - N/A   Clear
12:55 PM 66.4 °F 36.3 °F 33% 30.13 in 10.0 mi South 4.6 mph - N/A   Clear
1:15 PM 67.5 °F 36.1 °F 32% 30.11 in 10.0 mi Calm Calm - N/A   Clear
1:35 PM 66.9 °F 34.3 °F 30% 30.10 in 10.0 mi South 4.6 mph - N/A   Clear
1:55 PM 67.3 °F 34.9 °F 30% 30.09 in 10.0 mi South 4.6 mph - N/A   Clear
2:15 PM 69.1 °F 35.6 °F 29% 30.07 in 10.0 mi Calm Calm - N/A   Clear
2:35 PM 70.3 °F 37.8 °F 30% 30.06 in 10.0 mi Calm Calm - N/A   Clear
2:55 PM 71.4 °F 35.2 °F 27% 30.06 in 10.0 mi South 6.9 mph - N/A   Clear
3:15 PM 71.2 °F 34.0 °F 25% 30.05 in 10.0 mi SSW 3.5 mph - N/A   Clear
3:35 PM 73.4 °F 35.6 °F 25% 30.05 in 10.0 mi SW 3.5 mph - N/A   Clear
3:55 PM 73.9 °F 35.1 °F 24% 30.04 in 10.0 mi South 4.6 mph - N/A   Clear
4:15 PM 73.8 °F 35.2 °F 25% 30.03 in 10.0 mi SSW 4.6 mph - N/A   Clear
4:35 PM 74.5 °F 34.9 °F 24% 30.02 in 10.0 mi South 3.5 mph - N/A   Clear
4:55 PM 74.8 °F 35.4 °F 24% 30.01 in 10.0 mi Calm Calm - N/A   Clear
5:15 PM 75.0 °F 32.9 °F 21% 30.01 in 10.0 mi Calm Calm - N/A   Clear
5:35 PM 75.2 °F 34.3 °F 23% 30.02 in 10.0 mi South 5.8 mph - N/A   Clear
5:50 PM 74.7 °F 34.7 °F 23% 30.02 in 10.0 mi SSW 3.5 mph - N/A   Clear
6:15 PM 73.4 °F 34.2 °F 24% 30.02 in 10.0 mi Calm Calm - N/A   Clear
6:35 PM 71.2 °F 36.5 °F 28% 30.03 in 10.0 mi Calm Calm - N/A   Clear
6:55 PM 69.6 °F 38.1 °F 32% 30.03 in 10.0 mi Calm Calm - N/A   Clear
7:15 PM 67.6 °F 38.5 °F 34% 30.03 in 10.0 mi Calm Calm - N/A   Clear
7:35 PM 63.9 °F 41.5 °F 44% 30.04 in 10.0 mi Calm Calm - N/A   Clear
7:55 PM 61.7 °F 41.7 °F 48% 30.04 in 10.0 mi Calm Calm - N/A   Clear
8:15 PM 60.4 °F 41.7 °F 50% 30.04 in 10.0 mi Calm Calm - N/A   Clear
8:35 PM 57.7 °F 43.7 °F 60% 30.05 in 10.0 mi Calm Calm - N/A   Clear
8:55 PM 55.9 °F 43.9 °F 64% 30.05 in 10.0 mi Calm Calm - N/A   Clear
9:15 PM 54.9 °F 43.9 °F 66% 30.06 in 10.0 mi Calm Calm - N/A   Clear
9:35 PM 54.0 °F 43.2 °F 67% 30.06 in 7.0 mi SSE 5.8 mph - N/A   Clear
9:55 PM 54.1 °F 42.4 °F 65% 30.05 in 10.0 mi SE 3.5 mph - N/A   Clear
10:15 PM 54.1 °F 41.9 °F 63% 30.05 in 10.0 mi SSE 3.5 mph - N/A   Clear
10:35 PM 55.4 °F 42.1 °F 61% 30.05 in 10.0 mi SE 3.5 mph - N/A   Clear
10:55 PM 56.5 °F 42.3 °F 59% 30.05 in 10.0 mi Calm Calm - N/A   Clear
11:15 PM 56.1 °F 41.0 °F 57% 30.05 in 10.0 mi SSW 3.5 mph - N/A   Clear
11:35 PM 54.9 °F 41.4 °F 60% 30.05 in 10.0 mi South 4.6 mph - N/A   Clear
11:55 PM 54.3 °F 42.1 °F 63% 30.05 in 10.0 mi Calm Calm - N/A   Clear